Tracking 22438 objects as of 25-Feb-2021
HD Live streaming from Space Station
objects crossing your sky now

FREGAT DEB

Track FREGAT DEB now!
10-day predictions


NORAD ID: 46517
Int'l Code: 2011-037LV
Perigee: 771.6 km
Apogee: 5,956.8 km
Inclination: 51.2 °
Period: 159.3 minutes
Semi major axis: 9735 km
RCS: Unknown
Launch date: July 18, 2011
Source: Commonwealth of Independent States (former USSR) (CIS)
Launch site: TYURATAM MISSILE AND SPACE COMPLEX (TTMTR)

Note: This is SATELLITE DEBRIS
aabbcc
Your satellite tracking list
Your tracking list is empty




NASA's NSSDC Master Catalog

Two Line Element Set (TLE):
1 46517U 11037LV  20275.24020335 -.00013918  00000-0 -48686-1 0  9997
2 46517  51.2366 214.7437 2663132 152.5143 224.2939  9.03824160   745
Source of the keplerian elements: AFSPC